Wind_Speed
1 1 3 4 5 6 7 8 9 10 10 12 14 16 16 16 17 16 14 15 15 15 15 16 17 18 18 18 19 19 18 18 17 17 18 18 19 20 21 21 22 22 22 22
2 1 1 3 4 6 7 7 7 8 9 11 12 14 15 15 14 14 14 15 15 16 16 17 17 16 17 17 18 17 15 16 17 16 17 18 19 20 21 21 21 22 21 21
3 2 1 1 4 4 5 6 6 6 7 9 10 11 13 13 13 13 13 13 13 14 14 14 14 14 15 16 16 15 15 15 15 16 17 18 19 20 20 21 21 21 21 20
2 2 1 1 2 3 4 5 5 5 6 6 7 9 9 10 11 11 12 12 12 13 13 13 13 14 15 15 14 14 14 13 14 15 16 17 18 19 19 20 20 21 20 20
4 3 2 1 1 2 3 4 4 5 5 5 6 7 8 9 9 10 11 12 12 13 14 13 12 14 14 14 14 14 12 12 13 15 16 17 17 18 18 18 18 19 19 20
4 3 2 2 2 3 3 4 4 4 5 5 6 7 7 7 9 10 11 10 11 13 14 12 12 13 13 13 14 14 14 13 13 15 16 17 17 18 17 17 17 18 19 20
5 4 3 3 3 3 4 4 4 5 5 5 5 7 8 9 10 10 9 8 9 12 13 13 12 12 13 13 14 15 14 14 15 16 16 17 17 17 16 17 18 18 19 20
5 5 5 4 4 5 4 4 6 6 5 4 6 8 9 10 10 10 9 9 10 11 12 12 12 12 12 14 14 14 14 15 15 16 16 16 15 16 16 17 18 19 19 19
6 5 6 6 5 5 5 5 6 6 6 6 6 7 9 10 9 9 9 9 9 9 10 10 11 10 11 12 13 13 13 14 14 15 15 15 15 16 16 17 17 17 17 17
6 5 5 5 4 5 5 4 4 5 7 8 8 8 10 9 9 9 9 9 9 9 9 9 10 10 11 11 11 11 12 12 13 14 15 16 16 16 16 16 16 16 17 17
5 5 4 4 4 4 4 4 5 6 8 8 8 8 9 9 9 9 10 10 9 9 9 9 9 11 12 11 11 11 12 13 14 15 16 16 16 16 16 15 15 16 16 16
6 5 4 4 4 4 5 5 6 8 9 8 8 9 9 10 10 10 11 11 10 10 10 10 11 11 12 12 12 12 13 13 14 14 15 15 15 15 14 14 14 14 15 16
6 5 4 4 5 5 6 7 7 9 9 9 9 10 10 10 10 10 11 11 10 10 10 10 11 11 11 12 12 13 13 13 13 14 15 15 14 14 14 14 15 16 16 17
6 6 6 5 6 7 7 8 9 9 10 10 10 10 10 10 10 10 10 10 10 9 10 10 10 11 12 12 13 13 13 13 14 14 14 14 13 13 13 15 16 16 17 17
7 7 7 7 7 8 8 8 9 10 10 11 11 11 11 10 10 10 10 10 10 10 11 11 11 12 13 13 14 14 14 14 14 14 13 13 13 13 14 15 16 17 17 17
7 8 9 8 8 8 8 9 10 11 11 12 12 11 10 10 10 11 11 11 11 11 11 12 12 13 14 14 14 14 14 14 14 13 12 12 13 14 14 15 16 16 17 17
9 9 9 8 7 8 9 10 11 11 11 11 11 11 10 11 11 12 12 12 12 11 11 12 12 13 14 14 14 13 13 13 12 12 12 12 13 14 14 15 16 16 17 17
11 11 10 9 9 9 9 10 11 11 11 11 11 11 11 12 12 12 12 12 11 12 11 11 11 12 13 13 13 13 13 12 11 11 12 12 13 14 14 15 16 16 17 17
12 12 12 12 12 11 10 10 10 10 10 11 12 13 13 12 12 12 12 12 12 11 11 11 11 11 12 12 13 12 12 11 11 12 13 13 13 14 15 15 15 16 16 17
13 13 13 13 13 12 11 11 11 11 10 11 12 13 13 13 13 12 12 12 11 11 11 11 11 11 12 12 12 11 11 10 11 11 12 12 13 14 14 15 15 15 16 17
14 14 13 13 13 12 12 12 12 11 11 12 12 13 13 13 12 12 12 12 11 11 12 12 12 12 12 13 13 12 11 11 11 11 12 12 13 13 14 15 15 16 16 17
15 15 14 15 15 14 14 13 12 11 11 12 13 13 13 13 13 13 12 13 13 13 13 12 13 13 13 12 12 12 12 11 11 11 12 12 12 12 14 15 15 16 17 17
16 15 15 15 16 16 15 14 14 13 14 14 14 13 13 13 13 13 12 13 13 13 13 13 13 13 13 13 12 12 12 12 12 11 11 11 12 12 13 14 15 16 18 19
17 17 17 16 16 17 17 16 15 15 16 16 15 14 15 14 13 12 12 13 13 13 13 13 14 14 13 12 12 11 11 11 12 12 11 11 12 12 13 13 15 17 18 19
18 17 17 17 18 18 18 17 16 16 17 16 15 15 15 14 13 13 13 13 13 13 13 13 14 13 12 11 11 11 11 11 11 11 10 11 11 12 12 14 15 17 18 19
18 19 18 18 18 18 17 17 17 16 16 15 15 15 15 14 14 14 14 13 14 14 13 13 13 13 12 11 11 11 11 11 11 11 11 11 12 12 12 14 15 17 18 19
Wind_Direction
133 226 243 243 241 236 238 242 246 249 257 259 262 264 268 270 273 270 269 273 274 278 281 284 285 284 284 282 283 285 281 276 273 276 278 279 281 284 285 286 283 284 285 286
61 65 234 233 242 242 245 252 252 252 259 267 271 270 265 270 273 273 273 276 277 281 283 284 285 288 288 282 284 286 284 276 274 275 279 281 282 284 285 288 286 284 286 288
47 60 52 242 238 243 252 262 266 266 268 279 284 276 269 269 278 282 280 278 280 286 284 289 287 293 291 287 288 288 288 281 279 279 282 285 285 287 287 287 288 287 288 290
40 60 3 290 242 249 271 280 283 290 283 284 288 288 287 280 285 286 285 283 286 287 286 287 288 293 293 289 288 291 291 288 286 288 289 289 288 288 288 287 287 288 289 290
28 35 38 20 352 286 294 308 296 289 296 301 289 290 299 294 292 288 286 281 284 291 292 291 291 294 294 289 290 292 292 289 290 290 291 292 291 289 289 287 287 288 289 292
13 16 38 43 10 334 309 316 303 297 295 297 298 301 307 303 300 297 297 296 295 297 296 295 296 297 295 291 295 297 299 297 295 296 293 293 292 290 286 286 286 286 288 291
23 12 7 10 356 329 305 296 292 290 287 294 306 309 312 308 308 305 301 301 301 304 301 300 300 298 296 294 298 301 300 300 298 300 299 297 296 292 287 286 287 288 290 291
12 9 359 355 336 321 319 311 312 315 313 302 318 317 322 319 318 310 297 304 312 309 310 304 295 295 296 293 295 301 302 301 301 301 302 303 303 300 293 291 288 289 290 292
3 4 357 348 340 328 320 309 311 315 317 319 318 314 312 317 320 315 306 308 316 315 315 309 303 301 306 305 299 300 303 303 302 301 304 306 307 305 297 295 295 295 295 294
352 358 356 344 335 333 331 308 297 307 310 310 313 311 315 318 316 319 321 327 329 326 326 316 313 311 314 313 308 306 306 305 305 305 305 306 306 304 303 296 297 297 298 301
344 343 346 334 322 314 310 315 312 313 312 313 316 318 322 324 318 316 322 322 327 331 325 321 320 321 322 321 318 313 313 312 309 309 309 309 308 305 303 304 302 300 302 307
336 333 331 325 321 309 307 317 323 317 315 313 312 320 324 318 319 321 324 325 321 322 321 321 324 323 321 322 320 318 319 318 315 314 313 313 313 310 310 313 312 310 309 310
327 322 320 322 327 318 315 320 323 323 320 315 314 319 324 322 317 319 320 320 320 314 316 320 323 321 322 322 321 321 321 323 323 322 322 321 321 317 317 319 318 316 314 313
325 317 314 320 327 323 323 323 320 316 313 312 310 314 316 319 321 318 317 316 315 314 316 315 318 321 323 325 324 324 323 322 322 324 327 326 323 321 321 321 320 319 317 316
316 315 315 311 319 324 323 322 319 316 317 315 314 309 309 314 321 321 318 315 314 315 312 310 311 315 319 319 319 320 319 318 318 322 326 327 326 324 324 322 323 325 324 321
310 308 307 304 307 314 319 325 320 318 318 316 314 312 308 307 312 313 314 314 313 311 309 306 308 311 313 314 317 318 318 316 315 318 323 327 327 326 328 329 328 328 328 326
303 302 299 299 300 307 313 323 324 323 322 319 315 314 311 309 310 310 312 313 311 309 307 308 310 312 312 313 316 318 318 317 316 318 320 323 327 328 329 331 331 332 332 331
297 297 298 301 301 306 318 320 318 317 319 317 316 315 312 308 310 311 311 312 310 306 304 305 307 315 316 314 316 317 318 319 320 321 323 323 329 332 330 331 333 334 335 336
290 290 291 295 301 307 311 315 315 313 314 313 314 314 313 312 311 311 309 308 310 308 304 305 309 312 318 320 319 316 315 317 320 322 322 326 331 334 334 334 335 337 338 337
283 284 285 290 297 303 307 311 314 313 313 314 314 314 313 312 311 310 310 308 307 311 310 309 310 311 315 317 316 315 315 318 321 322 323 325 328 330 334 336 337 338 337 337
283 282 282 286 293 300 306 310 314 316 317 315 316 316 314 312 311 309 308 308 305 307 307 308 309 308 310 312 312 313 314 317 321 321 322 324 325 327 332 336 337 337 339 340
283 286 286 286 289 293 298 304 308 311 313 314 314 312 313 312 311 306 304 303 301 303 303 304 304 304 305 308 310 310 310 312 316 318 319 323 325 329 333 335 336 338 342 344
279 283 287 287 287 289 294 300 303 302 304 306 307 307 311 315 315 310 305 304 304 304 301 300 301 301 302 304 307 307 308 310 312 314 317 320 324 328 331 334 337 339 342 344
277 282 282 282 282 285 290 295 299 300 303 304 303 304 307 309 312 310 309 308 306 301 300 299 299 299 300 302 303 304 306 308 311 311 313 317 321 325 327 331 335 337 339 344
276 278 276 277 280 282 285 290 295 296 298 298 299 300 303 305 306 305 306 307 306 304 300 299 299 300 300 300 300 301 302 303 308 311 312 315 318 322 326 329 333 335 338 342
272 273 275 279 280 280 282 287 292 295 296 294 296 298 299 300 300 300 302 304 305 304 303 301 299 298 296 296 295 295 297 299 304 308 312 313 315 319 324 327 330 334 338 341
Height
5829 5830 5829 5830 5831 5832 5833 5833 5834 5834 5833 5833 5833 5832 5832 5832 5832 5832 5832 5832 5832 5832 5831 5830 5829 5828 5827 5827 5826 5824 5823 5823 5822 5822 5822 5822 5821 5820 5819 5818 5817 5815 5814 5812
5829 5829 5829 5829 5830 5830 5831 5832 5832 5832 5831 5830 5830 5829 5828 5828 5828 5828 5828 5828 5828 5827 5827 5826 5824 5823 5822 5822 5821 5819 5818 5818 5818 5818 5817 5817 5816 5814 5813 5812 5811 5810 5809 5807
5828 5829 5828 5828 5828 5829 5829 5829 5829 5829 5829 5828 5827 5826 5825 5826 5825 5825 5824 5824 5824 5823 5822 5821 5821 5820 5819 5818 5817 5816 5815 5815 5814 5814 5813 5812 5811 5809 5808 5807 5806 5805 5803 5801
5829 5829 5828 5828 5827 5828 5828 5828 5827 5827 5827 5826 5825 5824 5823 5822 5822 5821 5821 5821 5820 5819 5819 5818 5818 5817 5816 5815 5814 5813 5812 5811 5811 5810 5808 5807 5806 5805 5804 5803 5801 5799 5798 5796
5830 5828 5828 5827 5827 5827 5827 5827 5826 5825 5824 5824 5822 5822 5822 5820 5819 5818 5818 5817 5817 5816 5815 5814 5813 5813 5812 5811 5810 5809 5808 5808 5807 5806 5804 5803 5801 5800 5799 5797 5796 5794 5792 5790
5829 5828 5827 5827 5827 5826 5826 5826 5825 5824 5822 5822 5821 5821 5820 5818 5817 5816 5815 5814 5813 5813 5812 5811 5810 5809 5808 5807 5806 5805 5805 5804 5803 5801 5800 5798 5797 5795 5794 5792 5790 5789 5787 5785
5829 5828 5827 5827 5826 5826 5825 5825 5824 5822 5821 5820 5819 5818 5818 5816 5814 5813 5812 5811 5810 5810 5809 5808 5807 5806 5805 5803 5803 5802 5801 5800 5799 5797 5795 5793 5792 5790 5788 5787 5785 5783 5782 5779
5829 5828 5827 5826 5825 5824 5823 5822 5822 5821 5819 5818 5817 5816 5816 5814 5813 5811 5810 5808 5808 5807 5806 5805 5804 5803 5801 5800 5799 5798 5797 5795 5794 5793 5791 5789 5787 5785 5783 5781 5780 5778 5776 5774
5829 5829 5827 5826 5824 5823 5822 5821 5821 5820 5818 5817 5816 5815 5814 5812 5811 5810 5808 5807 5806 5805 5804 5803 5801 5800 5798 5796 5795 5795 5793 5792 5790 5789 5787 5785 5783 5780 5778 5776 5774 5772 5770 5768
5829 5828 5827 5825 5824 5823 5821 5820 5819 5818 5816 5815 5815 5813 5813 5811 5810 5809 5807 5806 5805 5803 5802 5801 5799 5798 5796 5794 5792 5791 5790 5788 5786 5785 5782 5780 5778 5775 5773 5771 5769 5767 5765 5762
5829 5828 5827 5825 5824 5822 5821 5820 5818 5817 5815 5814 5813 5814 5811 5809 5808 5807 5805 5804 5802 5801 5800 5799 5797 5796 5794 5792 5790 5789 5787 5785 5783 5781 5779 5776 5773 5771 5768 5766 5764 5762 5759 5757
5828 5827 5826 5825 5823 5822 5820 5819 5818 5816 5814 5813 5811 5813 5809 5808 5806 5804 5803 5802 5800 5800 5798 5797 5795 5794 5792 5790 5788 5786 5784 5782 5780 5777 5775 5772 5769 5766 5764 5761 5760 5758 5755 5753
5828 5827 5825 5824 5824 5821 5819 5817 5816 5815 5813 5812 5810 5811 5807 5806 5804 5803 5802 5800 5799 5798 5796 5795 5793 5791 5790 5788 5786 5783 5781 5779 5776 5774 5771 5768 5766 5763 5761 5758 5756 5754 5751 5749
5826 5825 5825 5824 5821 5819 5818 5817 5815 5814 5812 5810 5809 5807 5805 5804 5802 5801 5799 5798 5797 5796 5795 5793 5791 5790 5788 5785 5783 5780 5778 5776 5773 5771 5768 5765 5763 5761 5758 5756 5753 5750 5747 5744
5825 5824 5822 5821 5819 5817 5816 5815 5814 5812 5810 5808 5807 5805 5804 5802 5800 5799 5797 5796 5795 5793 5792 5791 5789 5787 5785 5783 5780 5778 5775 5773 5770 5768 5765 5763 5760 5758 5756 5753 5750 5747 5744 5741
5823 5822 5820 5819 5817 5816 5815 5813 5812 5810 5808 5806 5804 5803 5801 5799 5798 5796 5795 5793 5792 5791 5789 5788 5786 5784 5782 5780 5777 5775 5772 5770 5767 5765 5763 5761 5758 5756 5753 5750 5747 5744 5741 5738
5820 5819 5818 5817 5815 5814 5813 5811 5809 5807 5805 5803 5801 5801 5798 5796 5795 5793 5792 5791 5789 5787 5786 5784 5783 5781 5779 5777 5775 5772 5770 5767 5765 5763 5761 5759 5756 5754 5751 5748 5745 5742 5738 5735
5817 5816 5815 5814 5814 5812 5813 5808 5806 5804 5802 5800 5799 5797 5795 5793 5792 5790 5789 5788 5786 5785 5783 5781 5780 5778 5776 5773 5771 5769 5767 5765 5763 5761 5759 5756 5754 5751 5748 5746 5743 5739 5736 5732
5814 5813 5812 5811 5809 5808 5808 5806 5803 5802 5800 5798 5796 5794 5792 5790 5789 5788 5786 5785 5783 5782 5780 5779 5777 5775 5773 5771 5768 5766 5764 5762 5760 5758 5756 5754 5752 5749 5747 5744 5741 5737 5734 5731
5810 5809 5809 5807 5805 5804 5805 5803 5800 5799 5797 5795 5793 5791 5789 5787 5787 5786 5783 5782 5780 5778 5777 5776 5774 5772 5770 5768 5766 5764 5762 5760 5758 5756 5754 5752 5750 5748 5745 5742 5739 5736 5732 5729
5806 5805 5804 5803 5802 5801 5800 5799 5797 5797 5795 5793 5790 5788 5786 5785 5784 5782 5780 5778 5777 5775 5774 5773 5771 5769 5767 5765 5763 5761 5760 5758 5756 5754 5752 5750 5748 5746 5743 5740 5737 5734 5731 5727
5801 5800 5799 5798 5798 5799 5796 5795 5794 5793 5790 5789 5787 5785 5783 5782 5780 5779 5777 5775 5774 5772 5771 5769 5768 5766 5764 5762 5760 5759 5757 5756 5754 5752 5750 5748 5746 5744 5741 5738 5735 5732 5729 5725
5796 5796 5795 5795 5795 5793 5792 5791 5790 5788 5787 5785 5783 5781 5780 5778 5777 5776 5774 5772 5771 5769 5768 5766 5764 5763 5761 5759 5758 5756 5755 5753 5752 5750 5748 5746 5744 5742 5739 5737 5734 5731 5727 5723
5792 5791 5791 5790 5789 5788 5787 5786 5786 5785 5783 5781 5780 5778 5777 5775 5774 5772 5771 5770 5768 5766 5764 5763 5761 5759 5758 5756 5755 5754 5752 5751 5749 5748 5746 5744 5742 5740 5737 5735 5732 5729 5725 5721
5787 5786 5785 5785 5784 5783 5783 5782 5781 5780 5779 5777 5776 5775 5773 5772 5770 5769 5768 5766 5764 5763 5761 5759 5758 5756 5755 5753 5752 5751 5750 5748 5747 5745 5743 5741 5739 5738 5735 5733 5730 5727 5723 5719
5781 5780 5780 5780 5780 5779 5779 5778 5777 5775 5774 5773 5772 5771 5770 5768 5767 5765 5764 5762 5761 5759 5758 5756 5754 5753 5752 5750 5749 5748 5747 5745 5744 5742 5740 5739 5737 5735 5733 5730 5727 5724 5721 5717